EW9852 Weather Reports


Display with metric or nautical units.
time (UTC)temp
F
wind
direction
speed
MPH
gust
MPH
rain 1hr
in
rain 24hr
in
rain mn
in
humidity
%
barometer
mb
20260509223045 57 206 2.0 7.0 0.00 0.16 0.16 89 1006.3
20260509221538 57 200 1.0 6.0 0.00 0.16 0.16 90 1006.5
20260509220037 56 240 2.0 7.0 0.00 0.16 0.16 90 1006.6
20260509214536 56 250 2.0 6.0 0.00 0.16 0.16 90 1006.7
20260509213036 57 215 2.0 5.0 0.00 0.16 0.16 90 1006.7
20260509211534 57 225 2.0 6.0 0.00 0.16 0.16 93 1006.6
20260509210035 56 258 2.0 5.0 0.00 0.16 0.16 94 1006.7
20260509204528 55 207 1.0 5.0 0.00 0.16 0.16 95 1007.0
20260509203028 55 205 1.0 4.0 0.00 0.16 0.16 95 1007.1
20260509201526 55 210 0.0 3.0 0.00 0.16 0.16 95 1007.2
20260509200124 54 221 1.0 3.0 0.00 0.16 0.16 95 1007.2
20260509194520 54 234 1.0 4.0 0.00 0.17 0.16 95 1007.4
20260509193022 54 228 3.0 4.0 0.01 0.17 0.16 95 1007.6
20260509191620 54 210 1.0 5.0 0.02 0.17 0.16 95 1007.6
20260509190021 53 248 2.0 5.0 0.03 0.17 0.16 95 1007.6
20260509184514 53 162 2.0 5.0 0.04 0.17 0.16 96 1007.8
20260509183014 52 188 2.0 6.0 0.06 0.16 0.15 95 1007.8
20260509181514 52 228 2.0 7.0 0.05 0.15 0.14 95 1008.0
20260509180012 52 227 3.0 9.0 0.05 0.14 0.13 95 1008.0
20260509174515 52 219 4.0 9.0 0.05 0.16 0.12 94 1008.2
20260509173011 52 215 4.0 10.0 0.02 0.13 0.09 94 1008.0
20260509171519 52 217 3.0 8.0 0.03 0.13 0.09 94 1008.0
20260509170009 53 229 5.0 10.0 0.03 0.12 0.08 94 1008.1
20260509164508 53 204 2.0 4.0 0.03 0.11 0.07 95 1008.2
20260509163008 52 192 1.0 6.0 0.04 0.11 0.07 94 1008.0
20260509161506 52 199 3.0 10.0 0.03 0.10 0.06 94 1008.1
20260509160011 52 206 5.0 11.0 0.02 0.09 0.05 94 1008.3
20260509154503 52 211 3.0 6.0 0.01 0.08 0.04 93 1008.4
20260509153005 52 198 2.0 5.0 0.01 0.07 0.03 93 1008.5
20260509151500 52 210 2.0 5.0 0.01 0.07 0.03 93 1008.4
20260509150126 52 223 1.0 5.0 0.02 0.07 0.03 93 1008.4
20260509144708 52 194 0.0 5.0 0.02 0.07 0.03 94 1008.5
20260509143055 51 189 0.0 4.0 0.01 0.06 0.02 93 1008.5
20260509141553 51 201 1.0 6.0 0.01 0.06 0.02 93 1008.5
20260509140051 51 175 0.0 0.0 0.00 0.05 0.01 94 1008.5
20260509134549 51 284 0.0 1.0 0.01 0.05 0.01 94 1008.4
20260509133048 51 22 0.0 3.0 0.01 0.05 0.01 95 1008.5
20260509131543 51 348 0.0 0.0 0.01 0.05 0.01 94 1008.6
20260509130042 51 348 0.0 0.0 0.01 0.05 0.01 94 1008.7
20260509124558 51 348 0.0 0.0 0.00 0.04 0.00 94 1008.8
20260509123042 51 348 0.0 0.0 0.00 0.04 0.00 94 1008.7
20260509121544 51 348 0.0 0.0 0.00 0.04 0.00 94 1008.5
20260509120040 50 348 0.0 1.0 0.00 0.04 0.00 94 1008.5
20260509114540 50 24 0.0 0.0 0.00 0.04 0.00 94 1008.5
20260509113039 50 24 0.0 1.0 0.00 0.04 0.00 94 1008.3
20260509111537 50 28 0.0 2.0 0.00 0.04 0.00 94 1008.4
20260509110037 49 27 0.0 0.0 0.00 0.04 0.00 93 1008.3
20260509104538 49 27 0.0 0.0 0.00 0.04 0.00 93 1008.2
20260509103036 49 27 0.0 1.0 0.00 0.04 0.00 93 1008.2
20260509101535 49 27 0.0 2.0 0.00 0.04 0.00 93 1008.3
20260509100048 49 27 1.0 3.0 0.00 0.04 0.00 93 1008.4
20260509094535 49 66 0.0 2.0 0.00 0.04 0.00 93 1008.4
20260509093034 49 71 1.0 4.0 0.00 0.04 0.00 93 1008.5
20260509091530 49 42 0.0 0.0 0.00 0.04 0.00 93 1008.9
20260509090029 49 42 0.0 0.0 0.00 0.04 0.00 93 1008.6
20260509084531 49 42 0.0 0.0 0.00 0.04 0.00 93 1008.5
20260509083026 50 42 0.0 1.0 0.00 0.04 0.00 93 1008.6
20260509081539 50 42 0.0 3.0 0.00 0.04 0.00 93 1008.6
20260509080023 50 79 0.0 3.0 0.00 0.04 0.00 93 1008.8
20260509074521 50 67 1.0 4.0 0.00 0.04 0.00 93 1009.1
20260509073019 50 64 0.0 2.0 0.00 0.04 0.00 92 1009.2
20260509071520 50 63 0.0 1.0 0.00 0.04 0.00 92 1009.2
20260509070017 50 63 0.0 3.0 0.00 0.04 0.00 92 1009.3
20260509064515 50 68 0.0 3.0 0.00 0.04 0.00 92 1009.3
20260509063012 50 68 0.0 2.0 0.00 0.04 0.00 91 1009.6
20260509061512 50 68 0.0 0.0 0.00 0.04 0.00 91 1009.8
20260509060013 50 68 0.0 1.0 0.00 0.04 0.00 91 1009.9
20260509054515 50 68 1.0 3.0 0.00 0.04 0.00 91 1010.0
20260509053009 51 74 1.0 3.0 0.00 0.04 0.00 91 1010.3
20260509051506 51 10 0.0 2.0 0.00 0.04 0.00 90 1010.4
20260509050005 51 10 0.0 3.0 0.00 0.04 0.00 90 1010.4
20260509044501 51 44 0.0 1.0 0.00 0.05 0.00 90 1010.4
20260509043110 51 54 1.0 3.0 0.00 0.05 0.00 89 1010.0
20260509041557 52 13 0.0 1.0 0.00 0.05 0.00 87 1010.1
20260509040057 52 5 0.0 0.0 0.00 0.05 0.00 86 1009.9
20260509034602 52 5 0.0 0.0 0.00 0.07 0.05 85 1009.8
20260509033054 52 5 0.0 0.0 0.00 0.07 0.05 85 1010.0
20260509031600 52 5 0.0 0.0 0.00 0.07 0.05 85 1010.4
20260509030052 52 5 0.0 0.0 0.00 0.07 0.05 83 1010.0
20260509024552 53 5 0.0 0.0 0.00 0.07 0.05 82 1010.4
20260509023058 53 5 0.0 0.0 0.00 0.07 0.05 82 1010.3
20260509021552 53 5 0.0 0.0 0.00 0.07 0.05 80 1010.5
20260509020055 53 5 0.0 0.0 0.00 0.07 0.05 78 1010.1
20260509014551 53 5 0.0 0.0 0.00 0.07 0.05 78 1010.0
20260509013109 53 5 0.0 0.0 0.00 0.07 0.05 77 1009.9
20260509011551 53 5 0.0 0.0 0.00 0.07 0.05 77 1009.9
20260509010050 54 5 0.0 0.0 0.00 0.07 0.05 77 1009.6
20260509004549 54 5 0.0 0.0 0.00 0.07 0.05 77 1009.6
20260509003049 54 5 0.0 0.0 0.00 0.07 0.05 76 1009.3
20260509001548 54 5 0.0 0.0 0.00 0.07 0.05 76 1009.3
20260509000049 54 5 0.0 0.0 0.00 0.07 0.05 75 1009.3
20260508234546 55 5 0.0 0.0 0.00 0.07 0.05 76 1009.3
20260508233047 55 5 0.0 0.0 0.00 0.07 0.05 76 1008.8
20260508231552 55 5 0.0 0.0 0.00 0.07 0.05 76 1008.8
20260508230055 55 5 0.0 0.0 0.00 0.07 0.05 75 1008.9
20260508224600 55 236 0.0 3.0 0.00 0.07 0.05 75 1009.1